Theta_e
333 333 332 332 332 331 331 332 331 330 330 330 329 328 328 329 328 327 326 328 327 326 327 324 325 325 327 328 329 330 330 331 330 329 327 327 330 330 330 329 328 326 323
332 333 331 333 332 331 332 330 332 330 330 330 329 329 329 328 329 329 329 330 327 327 325 325 325 328 328 329 329 328 326 325 324 326 327 327 328 329 329 325 323 324 325
332 332 333 333 331 332 331 331 330 329 331 331 329 329 329 330 330 328 330 327 327 325 325 325 326 327 329 329 327 326 325 326 325 325 327 328 327 326 324 324 324 324 324
332 332 333 333 331 330 331 331 332 330 330 331 330 329 328 329 329 329 328 328 327 326 328 329 328 327 328 326 326 328 328 328 326 326 326 324 324 323 324 324 324 323 323
331 333 331 332 330 330 329 330 330 330 329 331 330 330 329 329 329 329 328 329 329 328 329 329 329 329 329 330 329 328 328 327 325 324 324 324 324 324 323 323 323 323 321
331 334 331 333 331 330 329 329 329 329 329 329 329 330 330 329 329 327 326 328 328 326 331 329 329 329 330 329 329 328 327 326 325 324 324 324 324 324 324 324 323 322 318
331 334 332 331 330 329 330 330 330 329 330 330 329 330 329 328 324 324 329 329 329 328 328 329 329 329 328 329 328 328 327 326 325 324 324 323 323 324 324 324 323 323 322
331 331 332 332 329 330 329 330 330 328 328 329 329 329 328 326 325 326 326 331 328 328 328 328 328 328 328 328 328 327 326 326 325 324 325 324 325 324 325 324 323 320 317
330 331 331 332 330 329 331 328 329 328 327 327 330 328 327 326 326 326 330 329 328 327 327 328 328 327 327 328 327 327 326 326 325 325 326 325 324 324 324 323 323 321 320
329 330 331 332 330 328 329 330 327 328 329 328 327 328 326 326 326 327 326 326 327 327 327 327 327 327 327 327 327 326 326 326 326 326 325 325 324 324 321 319 318 317 318
329 330 330 332 330 329 328 330 328 329 330 330 329 328 326 326 326 327 326 327 327 327 327 326 326 326 325 327 326 325 327 326 326 325 325 325 325 324 322 320 322 323 318
328 329 330 333 332 330 327 329 330 327 328 328 328 329 327 327 326 325 327 325 325 327 326 325 326 326 327 325 326 325 326 325 325 325 325 325 325 325 325 323 324 325 324
327 328 329 333 333 330 328 329 329 331 328 328 328 328 327 326 325 325 325 326 326 326 325 325 324 326 326 326 326 325 326 326 326 325 325 325 324 325 325 324 323 323 323
326 328 329 332 335 332 330 327 327 331 331 329 329 328 327 326 324 325 325 326 324 324 323 322 321 323 324 327 327 327 326 325 325 325 325 326 325 324 326 324 322 321 324
326 327 328 331 334 333 330 328 326 327 330 332 330 329 327 326 325 324 324 326 325 324 322 321 321 320 320 323 322 324 324 322 322 322 322 322 322 324 324 323 321 322 322
326 327 328 329 331 333 332 329 328 324 324 327 332 332 331 326 326 324 324 326 327 324 323 322 324 323 321 319 321 326 327 326 326 327 327 326 325 325 325 322 318 317 317
327 327 328 329 328 332 333 331 329 327 323 322 326 331 332 331 329 325 324 327 329 327 328 325 326 325 322 319 320 320 323 324 326 326 325 324 320 315 316 315 316 317 318
327 327 328 327 328 329 331 333 331 329 328 322 321 324 326 330 332 329 325 327 327 328 328 326 327 326 325 323 323 322 322 322 322 320 322 321 317 316 318 318 319 318 319
328 328 328 326 328 326 328 329 332 331 329 329 321 320 322 323 327 327 326 326 326 328 328 330 328 330 326 324 323 323 324 324 323 323 323 323 321 320 319 319 319 319 319
328 328 327 329 327 327 326 327 328 330 330 329 328 319 317 320 319 321 326 325 326 326 326 327 329 331 329 327 324 323 322 323 323 323 322 321 321 321 321 320 319 319 318
330 327 328 331 327 328 326 326 326 326 328 327 328 327 321 313 315 314 317 326 326 329 329 328 327 329 327 327 327 324 322 321 322 322 322 322 322 321 322 322 321 320 319
331 330 329 328 330 328 327 326 326 325 325 325 325 326 325 324 316 312 312 311 316 324 327 327 324 323 324 324 324 323 323 323 322 322 322 322 323 322 322 322 322 321 320
333 332 331 329 329 330 328 327 326 325 325 324 324 325 325 324 324 322 316 313 312 310 312 318 321 321 321 321 320 322 323 323 322 323 323 322 322 322 322 322 322 321 320
333 334 334 332 332 330 330 328 326 325 325 325 324 325 324 324 323 323 323 321 320 320 319 318 313 318 322 321 320 320 320 320 321 322 322 322 322 322 321 321 321 321 320
334 334 334 335 332 332 331 330 328 326 325 324 324 324 325 325 324 324 323 323 321 321 322 322 321 321 318 320 323 323 322 320 319 318 319 320 321 321 320 320 319 319 319
332 334 333 335 335 333 331 332 330 328 327 325 324 324 325 325 325 324 324 324 323 322 322 322 323 322 322 323 320 320 322 322 321 320 319 318 317 318 318 318 319 318 318
Wind_Speed
11 9 6 4 2 1 2 3 2 3 8 4 7 7 7 7 6 5 3 3 2 3 2 3 4 7 6 7 13 15 14 15 15 18 16 15 21 24 28 28 39 38 38
12 11 7 4 2 5 4 3 2 4 7 7 7 8 8 7 5 4 4 5 3 2 2 2 6 4 4 10 12 12 11 8 10 18 18 19 23 32 42 43 37 37 36
14 11 9 2 3 5 4 3 2 5 10 8 6 8 7 7 5 5 4 3 4 2 3 6 5 8 10 11 10 6 8 8 9 13 24 27 31 37 42 43 43 36 30
15 11 9 5 4 4 5 6 4 5 12 11 7 8 8 6 5 5 3 5 6 6 6 3 6 8 9 10 10 8 7 11 19 24 37 41 44 46 48 47 43 35 32
15 14 9 5 7 5 6 5 9 5 10 10 12 10 8 7 7 6 6 7 6 5 6 6 6 6 6 8 8 10 9 18 32 44 41 45 43 42 42 39 38 32 24
15 14 8 11 8 4 2 6 10 5 9 10 9 11 9 7 6 9 6 7 5 5 5 3 4 3 6 9 7 7 9 20 34 38 40 44 42 41 38 34 30 26 23
16 13 12 11 6 6 4 5 9 9 10 9 10 10 8 6 9 9 8 8 6 6 8 8 5 3 8 9 10 9 12 25 35 43 42 40 40 37 35 29 26 24 25
16 15 14 11 10 8 3 2 9 8 9 10 10 8 6 9 12 9 7 8 7 9 8 8 8 9 8 11 16 17 21 32 40 39 34 34 32 26 25 24 23 21 22
16 16 14 16 10 10 5 3 8 6 6 12 11 8 9 12 12 12 11 9 10 9 8 7 5 7 10 11 17 22 22 31 30 31 25 22 26 22 22 26 24 24 26
18 16 15 15 14 12 8 4 6 4 6 12 12 8 11 12 10 9 8 9 11 13 10 11 10 14 14 14 16 19 23 29 32 28 29 26 26 23 21 22 21 20 23
18 17 16 17 15 11 9 8 4 6 10 10 13 10 11 8 7 8 7 8 9 14 15 15 17 18 17 19 19 23 23 26 27 28 28 29 27 22 21 20 18 6 14
20 19 18 16 15 13 9 12 6 4 7 15 16 14 10 11 9 8 13 9 10 17 17 16 18 18 17 22 20 22 22 25 27 29 33 33 26 21 21 19 19 19 18
21 21 21 17 19 15 11 16 8 8 13 18 17 14 15 13 10 12 18 14 16 21 17 19 17 18 21 20 21 23 23 28 29 33 30 27 24 20 19 20 20 18 16
24 24 23 22 18 15 13 16 12 10 11 14 14 12 16 16 15 19 20 17 19 16 17 19 19 19 18 24 23 22 21 23 27 28 26 19 17 18 23 21 19 20 19
26 26 24 25 21 18 16 15 14 13 13 16 15 13 16 20 20 20 20 18 18 16 19 20 18 17 19 23 23 20 17 14 18 17 18 20 20 20 20 19 19 20 20
29 28 26 24 27 21 21 18 17 15 14 10 18 11 6 14 21 21 21 19 13 13 17 18 14 13 18 21 23 16 13 20 18 21 21 24 22 23 24 20 17 18 18
32 30 28 25 25 24 23 23 23 19 19 14 12 15 12 10 11 20 21 22 19 16 15 15 13 13 13 17 19 19 18 24 24 24 23 23 20 19 20 19 18 19 18
34 31 30 29 27 26 26 24 22 25 24 24 21 19 15 16 16 15 23 23 26 24 22 19 21 20 19 18 15 15 14 15 19 20 17 16 19 18 19 21 21 21 22
37 33 31 30 27 25 26 25 24 23 23 23 28 26 24 19 18 16 23 29 28 28 27 22 21 20 21 21 23 23 23 24 25 23 25 24 23 24 26 25 26 24 22
37 35 34 28 28 27 27 27 26 24 25 25 27 30 31 29 27 27 27 28 28 28 29 26 25 21 26 23 24 26 26 27 28 29 26 31 30 29 29 28 27 27 26
37 36 33 28 30 30 29 29 27 27 26 28 29 29 27 34 33 31 31 32 33 27 25 26 28 27 22 23 25 27 28 28 28 29 29 29 28 30 29 29 28 28 28
36 35 37 36 28 29 30 29 29 28 28 27 29 31 27 21 32 36 36 35 35 34 31 28 26 26 30 28 29 30 30 30 30 30 31 31 31 31 30 31 31 30 26
35 33 35 39 35 29 32 30 30 30 29 29 27 29 31 31 28 26 30 32 34 37 39 36 34 32 32 31 32 33 32 33 33 32 32 34 34 34 31 32 32 29 29
36 33 34 37 35 33 32 35 33 32 31 30 29 30 31 31 32 31 28 27 30 29 27 28 37 39 33 33 34 34 35 35 34 33 31 33 33 33 32 31 29 30 31
31 35 32 35 39 35 32 35 36 33 34 33 32 32 31 32 31 33 33 30 31 34 35 33 30 28 34 40 35 34 33 34 34 34 33 31 30 30 30 30 30 30 31
20 25 33 28 34 34 38 32 37 39 34 37 36 35 34 34 34 33 32 30 31 33 35 36 37 35 32 29 30 38 37 35 35 33 32 33 33 29 31 32 30 31 35
Wind_Direction
166 154 169 179 282 258 135 152 230 165 156 152 125 117 141 161 209 235 190 141 160 262 280 291 251 222 224 197 172 167 168 166 172 156 147 150 154 163 169 182 179 167 154
158 166 146 154 237 167 126 115 127 153 145 132 130 142 148 164 182 193 164 184 216 297 161 135 150 162 168 154 158 152 166 167 173 158 152 159 165 169 171 158 146 145 146
166 158 148 154 83 141 153 147 145 147 144 157 136 142 171 151 166 163 169 165 110 140 118 135 119 121 121 139 146 140 170 154 144 159 158 174 168 171 150 148 149 148 145
172 163 154 155 106 143 145 132 124 118 150 139 148 129 118 131 132 142 147 122 119 123 129 151 152 108 124 154 162 173 171 176 155 154 155 143 141 148 152 146 142 148 160
169 170 160 152 112 111 108 141 132 150 150 153 156 139 142 148 163 149 140 150 155 152 135 172 157 154 157 166 171 167 164 159 145 141 135 141 145 144 144 148 149 156 159
168 169 165 158 128 117 61 134 138 142 151 150 160 150 155 172 200 161 130 141 130 158 162 146 112 148 141 136 158 168 166 161 152 147 144 143 147 150 153 156 157 161 146
171 173 151 166 142 148 145 107 152 152 145 147 143 151 184 180 159 156 134 130 117 110 111 117 118 135 136 137 138 140 145 166 159 150 150 157 161 161 159 158 166 168 167
171 170 164 177 137 154 162 132 161 161 157 159 144 168 184 155 149 151 131 129 128 118 133 147 157 146 138 145 140 143 151 162 165 162 158 158 153 155 152 146 141 144 145
172 171 169 165 139 152 148 119 146 145 135 147 158 165 150 144 141 134 126 145 146 158 148 154 193 181 163 156 154 144 154 166 169 168 161 153 158 152 150 147 147 158 160
174 172 170 172 148 161 156 145 123 145 145 160 165 150 150 146 139 127 123 136 139 145 136 127 122 118 126 150 157 153 159 166 171 169 164 160 151 151 154 157 162 167 176
173 169 168 171 156 172 159 149 140 137 156 161 154 148 157 163 158 136 122 162 158 137 131 120 111 114 116 139 138 144 153 160 171 170 166 160 163 156 161 156 148 190 188
174 171 168 177 159 177 164 146 152 128 142 147 150 153 159 160 149 128 133 138 140 151 139 121 117 119 121 130 133 141 141 148 155 156 160 166 170 170 169 172 188 197 211
176 175 173 168 176 176 173 154 166 129 124 144 158 162 159 166 146 131 135 114 123 141 132 128 124 122 121 129 129 131 138 155 155 160 166 174 180 179 178 195 201 213 222
176 177 176 171 183 172 176 157 165 171 146 150 161 175 168 169 158 147 146 130 135 137 139 141 139 136 130 132 130 128 138 152 164 170 174 179 186 188 197 209 215 220 224
179 179 182 179 177 172 173 166 178 172 200 177 177 186 189 180 175 165 165 150 148 144 147 147 146 149 150 152 144 141 152 159 170 176 177 184 195 201 213 225 229 228 232
181 181 185 184 183 186 187 179 185 187 200 186 184 202 162 193 181 178 166 150 151 162 162 160 151 162 165 164 160 153 178 181 192 190 189 202 212 218 223 229 225 227 232
186 187 189 188 192 190 191 195 193 186 195 208 180 186 192 178 179 190 181 167 177 180 174 173 175 186 187 192 192 195 197 196 197 198 209 222 227 221 219 225 226 227 236
193 193 193 190 198 193 196 197 201 206 199 203 203 207 199 201 192 194 198 186 188 192 191 194 194 202 205 211 208 211 215 217 215 218 223 229 227 222 222 228 237 231 233
199 195 195 199 199 196 200 199 201 205 209 206 212 210 212 209 204 205 203 209 207 204 196 202 209 209 214 211 216 216 218 218 225 228 215 225 231 224 226 233 238 240 234
203 198 198 202 198 203 199 200 204 205 205 203 216 215 212 210 208 205 204 205 211 216 216 208 211 230 224 228 221 222 223 224 227 236 239 228 228 234 234 233 235 238 234
198 202 204 197 202 204 202 204 205 208 206 203 208 229 224 218 216 216 214 211 210 211 222 223 218 214 221 225 227 227 230 231 232 234 240 241 242 233 234 238 237 240 244
198 201 203 205 205 207 206 208 207 208 210 210 209 220 232 227 228 226 227 225 223 218 213 224 231 231 221 228 232 232 232 234 234 235 236 239 241 243 237 240 241 240 245
202 202 207 211 208 212 211 209 212 210 213 214 212 216 227 227 229 232 238 239 235 233 229 221 220 229 233 236 236 233 234 235 235 237 239 241 239 240 241 241 243 244 240
207 209 210 211 213 212 216 212 212 215 213 215 215 218 225 229 230 234 239 242 239 245 242 238 233 227 227 236 238 240 241 241 238 239 243 244 244 240 244 242 246 247 239
210 212 216 215 211 216 216 218 213 216 218 216 217 217 227 233 233 232 236 239 232 232 237 247 251 249 241 232 233 239 243 245 243 242 238 242 246 243 242 241 240 242 242
227 218 220 224 216 214 216 221 219 215 218 222 218 219 219 230 235 236 237 236 231 230 237 238 244 251 254 255 247 238 238 244 247 247 245 244 239 242 243 241 239 240 239